Regional Weather Roundup
Issued by NWS

Home | Current Version | Previous Version | Graphics & Text | Print | Product List | Glossary On
Versions: 1 2 3 4 5 6 7 8 9 10 11 12 13 14 15 16 17 18 19 20 21 22 23 24 25 26 27 28 29 30 31 32 33 34 35 36 37 38 39 40 41 42 43 44 45 46 47 48 49 50
836
ASUS45 KABQ 271310
RWRNM
NEW MEXICO REGIONAL WEATHER ROUNDUP
NATIONAL WEATHER SERVICE ALBUQUERQUE NM
700 AM MDT SAT MAY 27 2017

NOTE: "FAIR" MEANS FEW OR NO CLOUDS BELOW 12,000 FEET AGL WITH NO
       SIGNIFICANT WEATHER OR OBSTRUCTIONS TO VISION.

      THIS PRODUCT IS RELEASED AS TWO VERSIONS.  ONE VERSION NEAR
      THE TOP OF THE HOUR CONTAINING PRELIMINARY DATA FROM ALBUQUERQUE
      AND OTHER STATIONS.  A FINAL VERSION WITH ADDITIONAL DATA IS
      ISSUED ABOUT 10 MINUTES AFTER THE HOUR.

NMZ501-503-504-510>518-271400-
NORTHWEST PLATEAU/NORTHCENTRAL MOUNTAINS

CITY           SKY/WX    TMP DP  RH WIND       PRES   REMARKS
FARMINGTON     FAIR      47  24  40 N5        30.05R
LOS ALAMOS     FAIR      57  14  19 W12       30.14R
SANTA FE       FAIR      50  17  27 NW6       30.10R
TAOS           FAIR      43  16  33 CALM      30.15R
ANGEL FIRE     FAIR      38  21  51 CALM      30.18S

$$
NMZ402-403-502-505>509-271400-
WESTCENTRAL MOUNTAINS/SOUTHWEST MOUNTAINS

CITY           SKY/WX    TMP DP  RH WIND       PRES   REMARKS
GALLUP         FAIR      45  19  35 E5        30.16R
GRANTS         FAIR      41  14  33 CALM      30.16S
SILVER CITY    FAIR      53  24  32 NW9       30.13R

$$
NMZ407-409-411-412-271400-
SOUTHERN DESERTS

CITY           SKY/WX    TMP DP  RH WIND       PRES   REMARKS
DEMING         FAIR      56  26  31 W3        30.08R
LAS CRUCES     FAIR      66  28  23 W10       30.08R
HOLLOMAN AFB   FAIR      66  24  20 E7        30.08R
ALAMOGORDO     FAIR      63  27  25 S8        30.06R
T OR C         FAIR      60  18  19 NW7       30.06R

$$
NMZ519>523-271400-
CENTRAL VALLEYS/CENTRAL HIGHLANDS

CITY           SKY/WX    TMP DP  RH WIND       PRES   REMARKS
ALBUQUERQUE    FAIR      58  15  18 CALM      30.09R
DOUBLE EAGLE   MOSUNNY   46  19  34 SW7       30.11R
MORIARTY ARPT  FAIR      52  18  26 CALM      30.12R
CLINES CORNERS FAIR      53  13  20 W18       30.12R
BELEN          FAIR      58  15  18 SW3       30.10R
SOCORRO          N/A     59  19  21 CALM      30.07R

$$
NMZ524>526-539-540-271400-
SOUTHCENTRAL MOUNTAINS

CITY           SKY/WX    TMP DP  RH WIND       PRES   REMARKS
RUIDOSO        FAIR      61  16  17 N6        30.16R

$$
NMZ527>531-271400-
NORTHEAST HIGHLANDS/NORTHEAST PLAINS

CITY           SKY/WX    TMP DP  RH WIND       PRES   REMARKS
LAS VEGAS      FAIR      56  18  22 NE5       30.08R
RATON          FAIR      53  40  61 N20       30.03R
CLAYTON        FAIR      55  47  74 NW20G31   29.95R

$$
NMZ532>537-271400-
EASTCENTRAL PLAINS

CITY           SKY/WX    TMP DP  RH WIND       PRES   REMARKS
SANTA ROSA     FAIR      55  20  25 W5        30.00R
TUCUMCARI      FAIR      62  26  25 W12       29.92R
CANNON AFB     FAIR      61  25  25 NW6       29.98R
CLOVIS AIRPORT FAIR      63  27  25 W10       29.96R

$$
NMZ028-029-538-271400-
SOUTHEAST PLAINS

CITY           SKY/WX    TMP DP  RH WIND       PRES   REMARKS
ROSWELL        FAIR      62  31  31 CALM      29.96R
ARTESIA        FAIR      73  27  17 W10       29.97R
CARLSBAD       FAIR      77  28  16 W16       29.95R
HOBBS          SUNNY     70  27  19 SW8       29.96R


$$




USA.gov is the U.S. government's official web portal to all federal, state and local government web resources and services.